Météo par heure à Kiszombor

Ce jour, 8 Mars, Lundi

Heure Température Précipitation Vent Pression Humidité
00:00 +3°C° 0 mm 1 m/s 757 mmHg 50%
01:00 +1°C° 0 mm 2 m/s 757 mmHg 51%
02:00 +1°C° 0 mm 2 m/s 756 mmHg 53%
03:00 +1°C° 0 mm 2 m/s 756 mmHg 54%
04:00 +1°C° 0 mm 2 m/s 756 mmHg 55%
05:00 +2°C° 0 mm 1 m/s 756 mmHg 55%
06:00 +2°C° 0 mm 1 m/s 756 mmHg 54%
07:00 +2°C° 0 mm 1 m/s 756 mmHg 54%
08:00 +4°C° 0 mm 1 m/s 756 mmHg 50%
09:00 +5°C° 0 mm 2 m/s 756 mmHg 45%
10:00 +6°C° 0 mm 2 m/s 756 mmHg 41%
11:00 +7°C° 0 mm 2 m/s 756 mmHg 40%
12:00 +8°C° 0 mm 3 m/s 756 mmHg 38%
13:00 +9°C° 0 mm 3 m/s 756 mmHg 36%
14:00 +9°C° 0 mm 3 m/s 756 mmHg 37%
15:00 +9°C° 0 mm 3 m/s 755 mmHg 37%
16:00 +9°C° 0 mm 3 m/s 755 mmHg 37%
17:00 +8°C° 0 mm 3 m/s 756 mmHg 44%
18:00 +7°C° 0 mm 3 m/s 756 mmHg 51%
19:00 +4°C° 0 mm 3 m/s 756 mmHg 58%
20:00 +3°C° 0 mm 3 m/s 756 mmHg 62%
21:00 +3°C° 0 mm 3 m/s 757 mmHg 65%
22:00 +3°C° 0 mm 2 m/s 757 mmHg 69%
23:00 +2°C° 0 mm 3 m/s 757 mmHg 70%

Demain, 9 Mars, Mardi

Heure Température Précipitation Vent Pression Humidité
00:00 +1°C° 0 mm 3 m/s 758 mmHg 70%
01:00 0°C° 0 mm 3 m/s 758 mmHg 71%
02:00 0°C° 0 mm 3 m/s 758 mmHg 70%
03:00 -1°C° 0 mm 3 m/s 757 mmHg 69%
04:00 -1°C° 0 mm 3 m/s 757 mmHg 68%
05:00 -1°C° 0 mm 3 m/s 758 mmHg 66%
06:00 -1°C° 0 mm 3 m/s 758 mmHg 65%
07:00 -1°C° 0 mm 3 m/s 758 mmHg 64%
08:00 +1°C° 0 mm 3 m/s 758 mmHg 57%
09:00 +2°C° 0 mm 3 m/s 758 mmHg 50%
10:00 +4°C° 0 mm 3 m/s 758 mmHg 44%
11:00 +5°C° 0 mm 3 m/s 758 mmHg 42%
12:00 +5°C° 0 mm 3 m/s 758 mmHg 41%
13:00 +7°C° 0 mm 3 m/s 758 mmHg 39%
14:00 +7°C° 0 mm 3 m/s 757 mmHg 39%
15:00 +7°C° 0 mm 3 m/s 757 mmHg 39%
16:00 +7°C° 0 mm 3 m/s 756 mmHg 39%
17:00 +5°C° 0 mm 3 m/s 756 mmHg 43%
18:00 +5°C° 0 mm 2 m/s 757 mmHg 48%
19:00 +4°C° 0 mm 2 m/s 757 mmHg 52%
20:00 +3°C° 0 mm 2 m/s 757 mmHg 55%
21:00 +3°C° 0 mm 2 m/s 757 mmHg 58%
22:00 +1°C° 0 mm 3 m/s 757 mmHg 60%
23:00 +1°C° 0 mm 3 m/s 757 mmHg 61%

Après-demain, 10 Mars, Mercredi

Heure Température Précipitation Vent Pression Humidité
00:00 0°C° 0 mm 3 m/s 757 mmHg 62%
01:00 +1°C° 0 mm 2 m/s 757 mmHg 63%
02:00 +1°C° 0 mm 2 m/s 757 mmHg 63%
03:00 -1°C° 0 mm 2 m/s 757 mmHg 63%
04:00 -1°C° 0 mm 2 m/s 757 mmHg 62%
05:00 -1°C° 0 mm 2 m/s 757 mmHg 61%
06:00 +2°C° 0 mm 1 m/s 758 mmHg 60%
07:00 +2°C° 0 mm 1 m/s 758 mmHg 59%
08:00 +3°C° 0 mm 1 m/s 758 mmHg 53%
09:00 +4°C° 0 mm 2 m/s 758 mmHg 48%
10:00 +5°C° 0 mm 2 m/s 759 mmHg 42%
11:00 +6°C° 0 mm 2 m/s 759 mmHg 42%
12:00 +7°C° 0 mm 2 m/s 758 mmHg 42%
13:00 +8°C° 0 mm 3 m/s 758 mmHg 42%
14:00 +8°C° 0 mm 3 m/s 758 mmHg 43%
15:00 +8°C° 0 mm 3 m/s 758 mmHg 44%
16:00 +8°C° 0 mm 2 m/s 757 mmHg 45%
17:00 +7°C° 0 mm 2 m/s 758 mmHg 50%
18:00 +7°C° 0 mm 1 m/s 758 mmHg 55%
19:00 +6°C° 0 mm 1 m/s 758 mmHg 60%
20:00 +5°C° 0 mm 1 m/s 759 mmHg 61%
21:00 +5°C° 0 mm 1 m/s 759 mmHg 63%
22:00 +5°C° 0 mm 1 m/s 759 mmHg 64%
23:00 +4°C° 0 mm 1 m/s 760 mmHg 66%

11 Mars, Jeudi

Heure Température Précipitation Vent Pression Humidité
00:00 +4°C° 0 mm 1 m/s 760 mmHg 68%
01:00 +4°C° 0 mm 1 m/s 760 mmHg 69%
02:00 +4°C° 0 mm 1 m/s 760 mmHg 71%
03:00 +3°C° 0 mm 1 m/s 759 mmHg 72%
04:00 +2°C° 0 mm 2 m/s 759 mmHg 74%
05:00 +2°C° 0 mm 2 m/s 759 mmHg 74%
06:00 +2°C° 0 mm 2 m/s 759 mmHg 75%
07:00 +1°C° 0 mm 3 m/s 760 mmHg 75%
08:00 +3°C° 0 mm 3 m/s 759 mmHg 68%
09:00 +5°C° 0 mm 4 m/s 759 mmHg 61%
10:00 +7°C° 0 mm 4 m/s 759 mmHg 54%
11:00 +8°C° 0 mm 5 m/s 759 mmHg 51%
12:00 +9°C° 0 mm 6 m/s 758 mmHg 48%
13:00 +10°C° 0 mm 6 m/s 757 mmHg 44%
14:00 +10°C° 0 mm 6 m/s 757 mmHg 44%
15:00 +10°C° 0 mm 6 m/s 756 mmHg 44%
16:00 +10°C° 0 mm 5 m/s 755 mmHg 44%
17:00 +10°C° 0 mm 5 m/s 755 mmHg 46%
18:00 +9°C° 0 mm 5 m/s 755 mmHg 48%
19:00 +8°C° 0 mm 5 m/s 755 mmHg 50%
20:00 +8°C° 0 mm 5 m/s 755 mmHg 53%
21:00 +7°C° 0 mm 5 m/s 755 mmHg 55%
22:00 +7°C° 0 mm 5 m/s 755 mmHg 58%
23:00 +7°C° 0 mm 5 m/s 755 mmHg 59%

12 Mars, Vendredi

Heure Température Précipitation Vent Pression Humidité
00:00 +7°C° 0 mm 4 m/s 754 mmHg 60%
01:00 +7°C° 0 mm 4 m/s 754 mmHg 61%
02:00 +7°C° 0 mm 4 m/s 754 mmHg 60%
03:00 +7°C° 0 mm 5 m/s 754 mmHg 60%
04:00 +7°C° 0 mm 5 m/s 753 mmHg 59%
05:00 +7°C° 0.2 mm 6 m/s 754 mmHg 65%
06:00 +6°C° 0.2 mm 7 m/s 754 mmHg 70%
07:00 +6°C° 0.2 mm 8 m/s 754 mmHg 75%
08:00 +8°C° 0 mm 7 m/s 755 mmHg 72%
09:00 +9°C° 0 mm 6 m/s 755 mmHg 68%
10:00 +10°C° 0 mm 5 m/s 756 mmHg 64%
11:00 +11°C° 0.1 mm 4 m/s 756 mmHg 63%
12:00 +11°C° 0.1 mm 4 m/s 756 mmHg 62%
13:00 +11°C° 0.1 mm 3 m/s 756 mmHg 61%
14:00 +11°C° 0 mm 3 m/s 756 mmHg 60%
15:00 +12°C° 0 mm 3 m/s 755 mmHg 59%
16:00 +12°C° 0 mm 3 m/s 755 mmHg 57%
17:00 +11°C° 0 mm 3 m/s 755 mmHg 63%
18:00 +10°C° 0 mm 3 m/s 755 mmHg 70%
19:00 +9°C° 0 mm 3 m/s 755 mmHg 76%
20:00 +8°C° 0 mm 2 m/s 755 mmHg 78%
21:00 +8°C° 0 mm 2 m/s 755 mmHg 81%
22:00 +8°C° 0 mm 2 m/s 755 mmHg 84%
23:00 +9°C° 0 mm 1 m/s 755 mmHg 83%

13 Mars, Samedi

Heure Température Précipitation Vent Pression Humidité
00:00 +9°C° 0 mm 1 m/s 755 mmHg 82%
01:00 +9°C° 0 mm 1 m/s 754 mmHg 82%
02:00 +9°C° 0.2 mm 1 m/s 754 mmHg 83%
03:00 +7°C° 0.2 mm 2 m/s 754 mmHg 85%
04:00 +7°C° 0.2 mm 2 m/s 754 mmHg 87%
05:00 +7°C° 0.4 mm 3 m/s 753 mmHg 87%
06:00 +7°C° 0.4 mm 3 m/s 753 mmHg 88%
07:00 +6°C° 0.4 mm 4 m/s 753 mmHg 89%
08:00 +7°C° 0.1 mm 4 m/s 753 mmHg 84%
09:00 +7°C° 0.1 mm 4 m/s 753 mmHg 80%
10:00 +8°C° 0.1 mm 5 m/s 753 mmHg 75%
11:00 +10°C° 0.1 mm 5 m/s 752 mmHg 71%
12:00 +12°C° 0.1 mm 5 m/s 752 mmHg 66%
13:00 +13°C° 0.1 mm 5 m/s 752 mmHg 62%
14:00 +13°C° 0.2 mm 5 m/s 752 mmHg 64%
15:00 +13°C° 0.2 mm 5 m/s 751 mmHg 67%
16:00 +12°C° 0.2 mm 4 m/s 751 mmHg 70%
17:00 +11°C° 0.2 mm 3 m/s 751 mmHg 75%
18:00 +10°C° 0.2 mm 3 m/s 751 mmHg 80%
19:00 +9°C° 0.2 mm 2 m/s 751 mmHg 85%
20:00 +10°C° 0.1 mm 1 m/s 751 mmHg 86%
21:00 +10°C° 0.1 mm 1 m/s 751 mmHg 88%
22:00 +10°C° 0.1 mm 1 m/s 751 mmHg 90%
23:00 +8°C° 0.2 mm 2 m/s 751 mmHg 91%
Voir plus

Nous avons besoin de votre consentement

Meteoprog et ses fournisseurs de services peuvent stocker et accéder à des données personnelles telles que des cookies, des identifiants d'appareils ou d'autres technologies similaires sur votre appareil et traiter ces données pour personnaliser le contenu et les publicités, ainsi que pour fournir des fonctionnalités de médias sociaux et analyser le trafic.

  • Stocker et/ou accéder à des informations sur votre appareil

    Des cookies, des identifiants d'appareils ou d'autres informations peuvent être stockés ou accessibles sur votre appareil aux fins indiquées ci-dessus.

  • Annonces et contenus personnalisés, mesure des annonces et des contenus, connaissance de l'audience et développement de produits

    Les annonces et le contenu peuvent être personnalisés en fonction d'un profil. D'autres données peuvent être ajoutées pour mieux personnaliser les annonces et le contenu. Les performances des publicités et du contenu peuvent être mesurées. Il est possible d'obtenir des informations sur le public qui a vu les publicités et le contenu. Ces données peuvent être utilisées pour développer ou améliorer l'expérience de l'utilisateur, les systèmes et les logiciels.

En cliquant sur "J'accepte", vous autorisez l'utilisation de cookies, des identifiants d'appareils, des balises web ou d'autres technologies similaires. Vos paramètres peuvent être modifiés dans le navigateur de votre appareil.

Dans certains cas, des intérêts légitimes peuvent être invoqués plutôt qu'un consentement. Vous pouvez en savoir plus à ce sujet dans notre Politique de confidentialité et de cookies.